CW4362 Weather Reports


time (UTC)temp
C
wind
direction
speed
KPH
gust
KPH
rain 1hr
cm
rain 24hr
cm
rain mn
cm
humidity
%
barometer
mb
20260507151515 14 315 3.2 11.3 0.00 0.03 0.00 34 1009.4
20260507150515 14 315 3.2 9.7 0.00 0.03 0.00 35 1009.8
20260507145515 13 315 3.2 9.7 0.00 0.03 0.00 34 1009.9
20260507144515 13 315 3.2 11.3 0.00 0.03 0.00 39 1009.9
20260507143515 13 315 1.6 8.0 0.00 0.03 0.00 38 1009.9
20260507142515 13 315 4.8 9.7 0.00 0.05 0.00 38 1010.0
20260507141517 13 315 1.6 8.0 0.00 0.10 0.00 38 1010.0
20260507140517 12 315 1.6 6.4 0.00 0.18 0.00 40 1010.4
20260507135517 12 315 3.2 8.0 0.00 0.25 0.00 38 1010.5
20260507134517 12 315 3.2 9.7 0.00 0.28 0.00 38 1010.5
20260507133517 12 315 3.2 11.3 0.00 0.28 0.00 38 1010.8
20260507132537 12 315 3.2 9.7 0.00 0.36 0.00 39 1010.7
20260507131517 12 315 3.2 9.7 0.00 0.38 0.00 40 1010.7
20260507130517 11 315 3.2 8.0 0.00 0.38 0.00 43 1010.8
20260507125517 11 315 1.6 9.7 0.00 0.43 0.00 46 1010.7
20260507124517 11 315 3.2 8.0 0.00 0.46 0.00 45 1010.7
20260507123537 11 315 1.6 11.3 0.00 0.46 0.00 51 1010.5
20260507122537 11 315 3.2 9.7 0.00 0.46 0.00 51 1010.4
20260507121517 11 315 1.6 4.8 0.00 0.46 0.00 54 1010.4
20260507121017 10 0.0 1.6 0.00 0.46 0.00 56 1010.4
20260507120017 10 0.0 3.2 0.00 0.48 0.00 55 1010.5
20260507115017 10 315 1.6 6.4 0.00 0.48 0.00 53 1010.5
20260507114017 10 315 1.6 4.8 0.00 0.48 0.00 54 1010.5
20260507113037 10 0.0 1.6 0.00 0.51 0.00 58 1010.5
20260507112017 10 0.0 1.6 0.00 0.51 0.00 56 1010.5
20260507111037 10 315 1.6 3.2 0.00 0.51 0.00 55 1010.3
20260507110017 10 315 1.6 4.8 0.00 0.53 0.00 54 1010.0
20260507105017 10 0.0 1.6 0.00 0.58 0.00 56 1010.0
20260507104017 10 0.0 3.2 0.00 0.58 0.00 56 1009.9
20260507103017 10 0.0 1.6 0.00 0.58 0.00 56 1009.5
20260507102016 10 0.0 3.2 0.00 0.58 0.00 56 1009.5
20260507101037 10 0.0 4.8 0.00 0.58 0.00 54 1009.4
20260507100017 11 0.0 0.0 0.00 0.58 0.00 56 1009.4
20260507095017 11 0.0 1.6 0.00 0.58 0.00 55 1009.4
20260507094017 11 0.0 1.6 0.00 0.58 0.00 53 1009.4
20260507093017 11 0.0 4.8 0.00 0.58 0.00 54 1009.5
20260507092017 11 0.0 1.6 0.00 0.58 0.00 51 1009.5
20260507091017 11 0.0 4.8 0.00 0.58 0.00 49 1009.4
20260507090017 11 0.0 4.8 0.00 0.58 0.00 50 1009.2
20260507085016 11 315 1.6 3.2 0.00 0.58 0.00 52 1009.2
20260507084037 11 0.0 4.8 0.00 0.58 0.00 52 1009.0
20260507083016 11 315 1.6 8.0 0.00 0.58 0.00 53 1009.1
20260507082036 11 315 1.6 8.0 0.00 0.58 0.00 53 1009.1
20260507080539 11 315 3.2 8.0 0.00 0.58 0.00 55 1008.8
20260507075537 11 315 1.6 4.8 0.00 0.58 0.00 58 1008.8
20260507074516 11 315 1.6 8.0 0.00 0.58 0.00 59 1008.8
20260507073536 11 0.0 6.4 0.00 0.58 0.00 59 1008.8
20260507072516 11 315 1.6 6.4 0.00 0.58 0.00 60 1008.8
20260507071536 11 315 1.6 6.4 0.00 0.58 0.00 63 1008.8
20260507070516 11 315 1.6 8.0 0.00 0.58 0.00 65 1009.0
20260507065536 11 0.0 4.8 0.00 0.58 0.00 68 1009.1
20260507064536 12 315 1.6 8.0 0.00 0.58 0.00 69 1009.1
20260507063516 12 315 1.6 6.4 0.00 0.58 0.00 70 1008.9
20260507062516 12 315 1.6 6.4 0.00 0.58 0.00 70 1009.2
20260507061516 12 315 1.6 8.0 0.00 0.58 0.00 70 1009.2
20260507060516 12 0.0 3.2 0.00 0.58 0.00 70 1009.2
20260507055517 12 315 1.6 6.4 0.00 0.58 0.00 69 1008.8
20260507054516 12 0.0 3.2 0.00 0.58 0.00 71 1008.8
20260507053516 12 315 1.6 4.8 0.00 0.58 0.00 72 1008.8
20260507052516 12 315 1.6 6.4 0.00 0.58 0.00 72 1008.8
20260507051517 12 315 1.6 6.4 0.00 0.58 0.00 72 1008.8
20260507050536 12 315 1.6 11.3 0.00 0.58 0.00 72 1008.7
20260507045516 12 315 1.6 6.4 0.00 0.58 0.00 72 1008.8
20260507044516 12 315 1.6 9.7 0.00 0.58 0.00 71 1008.8
20260507043516 12 315 3.2 9.7 0.00 0.58 0.00 70 1008.8
20260507042516 12 315 1.6 6.4 0.00 0.58 0.00 71 1008.9
20260507041516 12 315 1.6 8.0 0.00 0.58 0.00 71 1008.9
20260507040536 12 315 1.6 6.4 0.00 0.58 0.00 73 1008.9
20260507035516 12 0.0 4.8 0.00 0.58 0.58 73 1008.9
20260507034536 12 315 1.6 9.7 0.00 0.58 0.58 73 1008.9
20260507033516 12 315 1.6 6.4 0.00 0.58 0.58 74 1008.3
20260507032516 13 315 1.6 6.4 0.00 0.58 0.58 75 1008.9
20260507031536 13 315 1.6 6.4 0.00 0.58 0.58 76 1008.9
20260507030516 13 315 1.6 9.7 0.00 0.58 0.58 78 1008.8
20260507025516 13 0.0 8.0 0.00 0.58 0.58 79 1008.8
20260507024516 13 315 1.6 6.4 0.00 0.58 0.58 79 1008.8
20260507023516 13 315 4.8 16.1 0.00 0.58 0.58 79 1008.3
20260507022516 13 315 3.2 11.3 0.00 0.58 0.58 81 1008.3
20260507021516 13 315 3.2 9.7 0.00 0.58 0.58 80 1008.3
20260507020516 13 315 3.2 11.3 0.00 0.58 0.58 80 1008.4
20260507015516 13 293 6.4 16.1 0.00 0.58 0.58 79 1008.0
20260507014516 13 315 4.8 16.1 0.00 0.58 0.58 79 1008.0
20260507013516 13 338 4.8 14.5 0.00 0.58 0.58 78 1008.3
20260507012516 14 338 3.2 8.0 0.00 0.58 0.58 79 1008.5
20260507011516 14 338 3.2 8.0 0.00 0.58 0.58 77 1008.5
20260507010516 14 0.0 3.2 0.00 0.58 0.58 78 1008.4
20260507005516 14 338 1.6 8.0 0.00 0.58 0.58 77 1008.5
20260507004516 15 338 3.2 9.7 0.00 0.58 0.58 76 1008.5
20260507003516 15 338 3.2 16.1 0.00 0.58 0.58 77 1008.3
20260507002516 15 315 1.6 9.7 0.00 0.58 0.58 76 1007.8
20260507001516 15 315 3.2 16.1 0.00 0.58 0.58 75 1007.8
20260507000516 15 338 1.6 8.0 0.00 0.58 0.58 75 1007.6
20260506235516 15 293 3.2 16.1 0.00 0.58 0.58 75 1007.4
20260506234516 16 270 1.6 9.7 0.00 0.58 0.58 74 1007.4
20260506233536 16 270 3.2 11.3 0.00 0.58 0.58 74 1006.8
20260506232535 16 270 3.2 11.3 0.00 0.58 0.58 76 1006.7
20260506231536 16 270 3.2 8.0 0.00 0.58 0.58 76 1006.7
20260506230516 16 270 1.6 11.3 0.00 0.58 0.58 77 1006.7
20260506225516 16 270 3.2 8.0 0.00 0.58 0.58 80 1006.5
20260506224516 17 270 4.8 16.1 0.00 0.58 0.58 80 1006.5
20260506223516 17 248 3.2 9.7 0.00 0.58 0.58 82 1006.3
20260506222518 17 248 3.2 9.7 0.00 0.58 0.58 81 1006.2
20260506221515 17 248 1.6 4.8 0.00 0.58 0.58 85 1006.2
20260506220516 18 203 1.6 6.4 0.03 0.58 0.58 100 1005.7
20260506215515 18 0.0 1.6 0.03 0.58 0.58 100 1005.7
20260506214516 18 0.0 0.0 0.03 0.58 0.58 100 1005.7
20260506213515 18 0.0 1.6 0.03 0.58 0.58 100 1005.6
20260506212515 18 0.0 3.2 0.03 0.58 0.58 100 1005.4
20260506211515 18 0.0 3.2 0.03 0.58 0.58 94 1005.4
20260506210515 18 0.0 3.2 0.00 0.56 0.56 91 1005.0
20260506205517 19 0.0 3.2 0.00 0.56 0.56 89 1005.1
20260506204517 19 0.0 1.6 0.00 0.56 0.56 87 1005.1
20260506203517 20 0.0 4.8 0.00 0.56 0.56 83 1004.7
20260506202517 20 203 1.6 6.4 0.00 0.56 0.56 80 1004.7
20260506201517 21 0.0 4.8 0.00 0.56 0.56 80 1004.7
20260506200517 20 203 1.6 4.8 0.00 0.56 0.56 80 1004.7
20260506195517 20 225 1.6 8.0 0.00 0.56 0.56 82 1004.8
20260506194517 20 0.0 6.4 0.00 0.56 0.56 84 1004.7
20260506193517 20 158 1.6 11.3 0.00 0.56 0.56 87 1004.8
20260506192517 19 158 1.6 11.3 0.00 0.56 0.56 87 1004.7
20260506191517 19 203 1.6 6.4 0.00 0.56 0.56 92 1004.7
20260506190517 18 203 1.6 8.0 0.00 0.56 0.56 94 1004.7
20260506185537 18 0.0 1.6 0.00 0.56 0.56 100 1005.1
20260506184517 18 203 1.6 6.4 0.00 0.56 0.56 100 1005.1
20260506183517 18 203 1.6 9.7 0.00 0.56 0.56 100 1005.2
20260506182517 18 0.0 4.8 0.00 0.56 0.56 100 1005.2
20260506181517 18 0.0 6.4 0.00 0.56 0.56 100 1005.2
20260506180517 18 0.0 4.8 0.00 0.56 0.56 100 1005.2
20260506175517 18 158 1.6 6.4 0.00 0.56 0.56 94 1005.2
20260506174517 18 158 1.6 6.4 0.00 0.56 0.56 90 1005.2
20260506173517 18 0.0 3.2 0.00 0.56 0.56 89 1005.1
20260506172517 18 0.0 3.2 0.00 0.56 0.56 88 1005.1
20260506171517 18 158 1.6 8.0 0.00 0.56 0.56 88 1005.0
20260506170517 18 158 1.6 8.0 0.00 0.56 0.56 86 1005.0
20260506165517 18 0.0 8.0 0.00 0.56 0.56 89 1005.0
20260506164517 18 158 1.6 9.7 0.00 0.56 0.56 89 1005.0
20260506163517 18 158 3.2 11.3 0.00 0.56 0.56 90 1005.1
20260506162517 18 158 1.6 8.0 0.00 0.56 0.56 92 1005.2
20260506161517 17 135 3.2 9.7 0.00 0.56 0.56 96 1005.2
20260506160517 17 113 3.2 14.5 0.00 0.56 0.56 95 1005.1
20260506155517 17 158 1.6 8.0 0.00 0.56 0.56 97 1005.2
20260506154516 16 158 1.6 11.3 0.00 0.56 0.56 99 1005.2
20260506153517 16 158 4.8 16.1 0.00 0.56 0.56 100 1005.1
20260506152536 16 158 3.2 14.5 0.03 0.56 0.56 100 1004.9